RH
26 25 23 23 22 19 16 11 6 3 2 2 2 6 13 18 19 14 10 10 11 12 13 13 13 14 17 20 21 21 23 26 30 30 31 33 34 35 36 34 32 33 35 37 37 36 35 33 31 29 25 23 22 21 22 23 24 24 26 28 31 33 37 42 47 49 50 51 53 54 53 53 54 54 60 77 85 83 91 100 100 100 98 98 100
26 26 25 24 23 21 19 14 9 4 2 2 2 5 12 18 20 15 10 10 11 12 13 14 14 13 15 18 20 20 22 25 29 30 30 31 31 32 33 35 34 33 34 36 37 37 36 35 33 32 31 28 26 25 24 24 23 23 23 24 26 28 29 31 38 43 46 47 49 51 55 56 57 56 52 58 76 84 89 98 101 100 100 99 99
28 28 27 26 25 23 21 17 12 6 3 2 2 4 10 17 20 17 12 10 11 11 13 15 15 14 15 17 18 19 22 24 26 28 29 30 30 30 32 35 36 36 35 36 37 37 37 36 35 34 33 32 31 30 28 27 27 25 23 22 22 23 25 25 27 32 38 44 46 46 52 56 56 58 54 49 58 73 83 93 99 99 99 100 100
31 30 29 27 26 25 23 20 15 10 5 2 2 3 8 14 20 20 13 11 11 11 12 14 16 16 16 16 17 19 22 24 25 26 28 30 31 31 32 34 36 38 38 37 36 37 37 36 36 36 36 34 34 33 32 31 32 31 27 24 22 21 21 22 21 22 26 34 41 44 46 51 53 56 58 52 50 57 68 79 91 98 99 98 100
35 33 31 29 28 27 25 23 18 14 8 4 2 2 5 11 19 22 16 11 11 11 11 13 16 18 18 17 17 19 22 24 25 25 26 29 30 31 31 33 35 37 37 37 37 37 38 38 37 37 37 36 35 34 33 33 33 35 33 28 25 23 21 20 19 17 18 23 30 38 42 44 48 51 53 55 54 50 53 62 73 88 97 98 99
40 38 35 32 31 29 27 25 22 18 13 7 3 2 3 7 15 22 19 13 11 11 11 12 14 17 19 19 18 19 21 23 25 25 27 28 30 30 31 31 32 34 34 34 35 36 37 38 37 37 37 37 36 35 34 33 33 33 35 33 30 28 24 21 19 16 14 16 20 27 35 40 43 47 47 49 55 54 49 49 54 68 85 95 100
46 44 41 38 35 33 30 27 25 22 17 11 5 2 2 3 10 20 22 16 12 11 11 11 12 15 19 21 20 20 20 21 23 25 26 27 29 30 30 31 32 33 34 34 35 36 37 38 38 39 39 38 38 37 36 35 34 33 34 34 33 32 29 24 21 18 14 13 15 18 25 32 36 41 45 44 48 55 55 49 45 50 63 80 94
52 50 48 45 42 38 34 31 29 25 21 16 10 4 2 2 5 13 22 22 15 11 11 12 11 13 17 20 22 22 21 22 22 24 25 27 29 30 31 32 33 34 36 37 38 39 40 41 42 43 43 43 42 41 40 38 37 36 35 34 33 32 31 29 25 21 17 13 13 16 18 24 29 33 38 42 43 47 54 56 50 45 48 59 76
56 56 55 52 49 44 40 36 33 30 26 21 15 8 3 2 2 7 18 25 21 15 11 12 12 12 14 18 23 24 24 24 24 25 27 29 31 34 35 36 37 38 39 41 42 43 44 45 46 47 48 48 48 47 47 45 43 41 38 36 34 32 31 30 28 25 22 17 13 14 15 17 22 27 30 36 40 41 46 54 57 52 46 48 56
60 60 60 58 56 52 47 43 39 35 31 26 21 14 7 3 2 4 12 23 26 21 15 12 12 13 13 15 21 25 26 26 26 27 29 31 33 36 38 39 40 41 43 44 46 48 49 50 51 52 52 52 53 52 52 51 51 49 46 42 37 33 31 29 29 27 25 21 16 13 13 14 17 21 26 29 34 38 40 45 54 57 52 49 49
64 64 64 63 61 58 55 50 45 41 37 32 27 21 13 6 3 2 7 17 26 26 22 16 13 13 14 14 18 24 27 27 28 28 30 31 34 36 39 41 43 44 46 47 49 50 53 54 55 55 56 56 56 56 56 55 56 55 53 50 44 38 33 30 28 27 25 24 21 16 12 12 13 16 21 25 28 32 37 39 44 52 56 55 53
67 66 66 66 66 63 61 58 53 49 43 39 33 27 21 12 5 3 4 11 21 27 27 23 18 14 13 14 15 20 27 29 29 30 31 32 34 36 39 42 44 46 48 50 52 53 54 56 57 58 60 60 59 58 59 59 59 60 57 54 49 44 38 34 29 27 26 24 23 20 16 12 11 12 15 19 24 26 31 35 37 43 50 54 57
68 68 68 68 69 67 65 63 61 57 52 47 40 34 27 18 9 4 3 6 14 22 27 28 26 21 16 14 14 18 24 29 30 31 32 34 35 36 39 42 45 47 49 51 53 55 57 58 59 59 61 62 62 61 61 62 62 63 62 57 50 46 44 40 34 29 27 26 24 22 19 15 12 11 11 13 18 22 25 30 33 38 42 47 55
64 66 68 69 69 68 67 67 66 65 62 56 48 40 32 24 15 8 3 3 8 15 22 28 31 29 23 16 13 16 21 26 30 31 33 34 35 37 39 41 44 47 49 52 53 56 59 61 62 63 63 64 64 64 64 66 66 64 65 61 51 45 45 46 41 35 29 27 27 24 21 18 14 12 11 10 11 16 21 25 30 34 37 40 47
59 62 65 67 68 66 66 68 69 71 69 64 56 48 39 29 20 13 7 3 3 8 15 24 31 33 31 24 17 15 18 24 28 30 31 32 33 36 38 39 42 45 48 50 52 55 58 62 65 66 66 66 67 67 66 67 68 67 65 63 55 45 43 48 48 42 35 29 28 28 26 23 18 13 11 10 9 10 14 19 25 30 33 35 41
53 57 60 62 63 63 64 68 71 73 74 71 65 57 49 39 28 19 12 6 3 4 9 18 27 33 35 33 25 18 17 21 27 28 28 29 29 31 34 36 38 40 43 46 48 52 56 60 65 68 69 68 68 69 69 69 68 68 67 64 60 49 40 44 50 48 42 35 29 29 30 29 26 20 14 11 9 8 9 11 17 24 28 32 37
47 51 53 56 58 60 62 66 69 73 74 74 71 66 58 50 39 27 17 10 5 3 6 12 21 29 35 37 34 27 20 18 23 27 27 26 26 27 28 30 33 35 38 41 44 46 50 53 60 68 70 68 68 69 70 71 69 68 67 65 63 56 43 39 46 50 46 40 33 30 31 32 32 29 24 18 12 9 7 7 9 14 20 27 33
45 47 50 52 54 58 62 64 67 71 73 75 75 73 68 61 51 38 24 15 8 4 3 7 13 22 30 36 38 36 29 21 20 24 26 26 25 24 25 25 27 30 33 37 42 44 45 47 51 62 70 69 67 68 70 71 71 69 67 66 64 61 51 39 37 44 47 44 38 33 30 31 33 34 32 29 24 17 11 7 6 7 11 17 25
46 48 50 51 54 58 61 63 67 70 72 75 76 77 75 70 62 49 34 22 12 5 3 4 8 15 24 32 37 41 39 31 23 21 23 25 25 25 24 24 24 26 28 33 40 44 45 45 46 53 65 70 68 67 70 71 72 71 69 67 65 63 59 47 34 32 37 41 41 38 34 32 31 32 33 34 32 28 22 15 9 6 5 8 14
47 50 52 53 56 59 60 63 68 71 74 75 77 79 80 77 71 60 46 32 19 10 4 3 5 9 17 26 34 40 43 42 34 26 22 22 25 26 25 25 25 25 26 28 36 45 46 45 45 48 59 69 69 67 69 72 73 74 72 69 67 65 63 56 41 29 25 26 31 35 37 37 35 34 33 33 33 32 32 28 20 13 7 5 6
49 52 53 53 56 59 61 63 68 72 76 78 79 81 82 83 79 69 57 43 30 18 9 4 3 5 11 18 28 36 42 46 45 38 32 25 24 25 26 27 27 26 27 26 32 42 47 46 46 47 54 65 68 66 69 73 73 75 75 72 68 66 65 62 52 39 26 19 18 19 23 29 33 35 36 36 35 33 32 33 30 25 17 10 5
59 59 57 56 57 60 61 63 67 70 75 80 83 84 85 86 85 78 68 54 41 28 16 8 4 4 7 12 19 29 37 43 46 46 44 38 31 27 26 27 28 30 30 28 31 40 46 49 50 49 51 60 66 65 68 73 74 75 77 75 70 67 66 64 59 50 36 24 19 15 13 14 16 21 27 31 35 37 35 33 32 32 29 23 13
66 67 67 65 63 64 64 64 67 70 74 79 85 88 89 88 88 85 78 66 54 42 27 16 9 4 5 8 13 21 29 37 43 46 48 48 44 38 34 31 31 33 34 31 32 39 46 52 56 54 51 57 64 65 66 73 75 74 77 77 73 68 66 65 63 59 48 34 26 21 17 13 10 9 10 15 22 31 36 36 35 34 34 33 27
70 71 72 74 72 71 71 72 75 76 78 82 86 91 93 91 91 90 85 77 68 57 43 29 17 9 6 6 10 16 22 30 39 45 49 51 52 50 45 41 38 36 38 36 35 40 48 55 61 61 55 56 63 65 66 71 75 74 76 77 75 70 67 66 65 63 58 48 37 29 24 20 16 12 8 6 8 14 22 30 34 37 37 37 36
76 77 77 78 78 77 77 79 83 86 87 88 90 93 95 94 93 92 89 85 78 70 58 43 29 17 10 7 8 12 18 25 34 44 51 53 55 56 54 51 47 42 40 39 38 43 52 59 64 66 61 58 63 67 66 69 74 75 75 76 77 74 69 66 65 64 63 58 49 39 31 25 22 18 14 10 6 5 9 14 20 29 36 39 40
77 81 82 83 83 82 81 82 85 89 93 96 95 97 98 98 97 94 92 89 84 78 68 54 40 28 17 10 7 9 15 21 29 40 50 55 56 57 57 56 55 50 45 40 39 48 59 64 66 68 66 63 64 68 67 68 74 76 74 75 77 76 71 66 65 64 64 63 60 51 40 32 28 24 20 16 11 7 5 6 8 15 26 37 43
73 78 80 82 84 85 85 85 87 88 92 97 99 100 100 100 100 97 95 91 88 84 74 62 50 37 24 13 9 9 12 18 25 34 45 53 55 55 57 59 59 57 50 41 40 53 66 69 70 70 69 67 68 70 68 68 74 77 76 75 75 75 74 69 67 67 66 65 65 62 52 41 33 29 26 23 18 12 8 5 6 8 15 26 37
68 74 76 77 80 84 85 86 88 89 90 94 98 100 100 100 101 100 98 95 91 87 79 68 57 44 31 19 12 9 10 14 20 27 37 48 54 56 57 60 63 63 56 43 42 58 71 75 74 72 69 69 71 73 70 68 75 78 77 76 75 74 74 74 73 72 70 67 66 67 64 55 44 35 30 27 25 20 13 8 6 6 8 13 20
57 66 75 78 79 81 83 84 86 88 90 92 95 98 99 100 101 100 100 98 94 89 83 74 63 51 38 26 17 12 9 11 16 23 32 43 53 58 59 61 65 67 61 48 46 61 75 80 79 74 69 70 74 76 72 69 74 79 80 79 77 75 76 77 77 76 74 71 68 69 70 66 58 48 38 32 29 26 22 15 9 7 6 7 9
48 54 65 74 79 82 82 83 84 87 89 90 92 95 97 100 101 100 101 100 97 92 86 78 68 57 45 32 23 17 12 10 14 20 28 40 52 60 62 63 65 68 66 55 51 64 77 82 82 77 70 71 77 79 74 72 76 81 84 84 82 81 82 81 80 80 78 75 72 70 71 72 69 62 52 43 34 30 28 24 18 12 7 7 7
56 56 58 63 71 79 83 84 85 86 89 91 91 92 95 98 100 100 101 101 99 96 90 82 73 62 51 39 29 21 15 12 12 16 23 34 48 58 63 64 65 68 70 62 56 65 77 81 82 81 73 72 79 82 76 75 79 83 85 85 83 84 85 83 83 82 80 79 77 74 72 73 74 72 67 60 49 39 33 30 27 21 15 10 7
70 70 70 67 66 68 75 82 87 89 89 91 92 93 94 97 100 100 100 101 101 99 94 86 76 67 56 44 35 26 20 15 11 13 18 27 40 54 62 65 66 68 72 70 63 65 74 79 81 83 79 75 81 85 79 78 83 87 87 83 79 78 78 80 83 84 83 82 81 78 74 73 75 75 75 74 67 56 45 38 33 30 26 20 15
78 79 82 83 80 75 72 74 81 88 92 93 95 96 96 98 100 100 100 100 100 100 98 89 79 70 59 49 40 31 24 18 13 11 15 21 31 45 58 65 67 68 72 75 73 69 70 74 77 82 83 80 82 86 82 81 88 91 89 84 77 70 69 72 78 83 85 85 85 82 79 75 74 75 76 78 77 72 64 54 44 38 34 31 26
77 77 80 84 90 92 87 80 80 85 92 97 99 98 98 99 100 100 100 100 100 100 100 93 82 72 63 53 44 36 29 22 16 13 13 18 26 38 50 61 66 68 70 75 79 77 74 74 75 81 86 86 86 88 85 85 92 95 93 88 78 68 66 70 76 81 83 84 85 85 84 82 80 77 77 79 79 78 76 70 61 52 44 39 35
75 75 75 77 82 88 92 91 90 88 92 97 99 98 99 99 100 100 100 100 100 100 101 97 86 74 66 58 48 40 32 25 20 15 12 14 21 31 42 54 63 68 70 74 80 82 81 81 80 83 89 91 90 89 87 88 96 100 99 93 81 71 70 73 76 81 85 86 87 88 88 89 89 87 86 86 85 84 82 78 73 68 61 55 48
70 71 73 75 78 78 80 84 89 92 95 97 98 97 97 99 100 101 100 100 100 100 101 100 93 80 70 62 52 42 34 28 23 18 13 11 16 23 33 44 55 65 71 74 78 81 83 85 86 86 92 97 96 92 90 92 98 102 103 99 86 75 74 77 77 80 87 90 92 93 94 95 96 97 98 95 91 88 85 82 79 77 77 74 69
57 58 59 64 70 72 74 77 81 89 96 100 99 96 96 99 101 100 101 101 100 100 101 101 98 88 76 66 56 44 35 30 25 20 15 11 13 19 26 35 46 60 70 74 77 81 83 85 87 89 94 101 101 96 93 95 99 101 103 101 92 79 75 79 81 83 86 89 91 92 94 98 100 102 102 100 96 89 84 82 82 83 85 85 85
52 52 51 52 56 59 65 74 81 88 96 100 101 98 98 100 101 100 101 101 100 100 100 101 100 95 82 71 60 47 36 31 28 22 17 13 13 17 23 30 40 54 67 74 77 82 86 86 89 92 95 100 104 102 98 98 101 103 102 101 96 86 78 77 83 88 90 87 86 89 92 96 99 102 102 101 100 95 86 82 83 85 88 89 92
50 52 53 53 54 54 60 73 86 94 99 101 100 100 101 101 101 101 100 100 101 100 100 101 102 98 89 77 64 49 38 33 29 24 19 15 13 15 21 28 37 49 62 73 79 84 87 87 89 94 97 99 102 102 101 101 102 103 102 99 97 92 83 78 80 88 93 91 84 82 87 92 96 101 103 101 101 100 93 88 86 86 86 89 96
52 54 55 55 58 62 67 79 93 99 100 101 100 100 101 101 100 101 100 100 101 100 100 101 102 100 94 84 69 53 41 34 30 26 21 17 14 15 21 28 36 46 59 72 79 85 89 89 89 94 100 102 102 102 102 102 102 103 102 99 98 95 88 83 81 83 90 95 89 81 82 91 96 98 101 102 102 102 99 96 91 84 80 87 100
59 60 60 60 62 68 75 85 97 101 100 100 101 100 100 100 100 100 100 100 100 100 100 101 101 100 97 89 75 59 45 37 32 28 23 18 15 15 21 28 36 44 56 70 80 85 91 94 92 94 101 105 104 102 102 102 103 104 103 102 101 98 94 91 88 83 82 85 85 80 83 96 102 98 98 100 101 101 101 101 96 86 78 84 98
53 55 58 61 63 69 76 83 93 100 101 100 100 100 100 100 100 100 101 100 100 100 100 100 101 101 99 93 81 65 49 41 36 30 24 20 16 15 20 28 37 45 55 69 79 85 93 99 98 98 101 104 103 103 102 102 103 104 102 102 101 100 99 96 90 82 76 74 75 76 82 93 98 95 95 97 98 101 102 101 100 96 90 89 94
45 45 47 51 55 64 73 79 85 94 100 101 100 100 100 100 100 101 100 99 99 99 100 100 100 101 100 96 86 70 55 47 40 32 26 21 17 16 19 27 39 49 57 68 77 84 93 101 102 101 101 101 103 104 103 103 104 103 101 101 100 99 98 94 86 80 76 73 72 74 79 84 86 85 88 91 95 99 100 99 100 102 101 100 99
39 37 36 39 42 50 63 75 82 88 96 100 100 100 100 100 101 100 99 99 101 101 100 100 100 100 101 98 89 75 62 52 43 34 27 23 18 16 18 26 39 51 60 69 77 83 91 99 102 101 101 100 101 102 102 102 103 103 101 100 99 95 94 93 90 85 81 77 76 78 80 80 78 78 80 85 91 96 98 98 101 103 102 103 103
34 33 33 34 35 39 50 66 79 87 93 97 100 100 100 100 100 100 99 100 102 101 100 100 100 100 101 100 92 80 68 57 46 36 28 24 20 17 16 23 37 51 61 70 77 83 92 100 103 101 100 100 100 101 101 99 96 95 95 94 94 92 93 94 92 88 84 82 82 82 80 76 74 76 80 85 90 95 97 99 101 101 100 101 102
37 35 35 35 36 38 43 53 72 89 95 96 99 101 100 100 100 100 100 100 100 100 100 100 100 100 101 101 95 84 73 62 50 38 30 25 22 18 16 20 33 48 59 66 73 80 88 97 101 102 101 101 100 100 101 98 95 94 95 94 94 94 95 93 91 89 88 88 86 83 78 74 75 79 83 87 91 94 98 99 98 98 99 101 101
41 39 40 40 39 41 42 48 70 94 100 98 100 101 100 100 100 100 100 101 100 100 100 100 100 100 101 102 98 88 76 66 54 42 32 26 23 20 17 17 25 38 52 61 67 72 78 85 92 98 100 100 101 101 101 100 99 98 96 94 95 95 92 90 90 90 90 88 84 81 78 78 80 84 86 89 93 96 99 99 98 98 99 100 100
45 42 43 44 43 45 44 48 69 95 102 99 100 101 100 100 101 100 100 101 100 100 100 100 100 100 100 102 100 91 80 70 59 46 35 28 24 21 18 17 21 31 45 56 62 66 71 76 82 88 91 92 93 94 94 94 95 94 92 91 91 90 88 89 90 90 89 86 84 83 83 84 85 87 89 92 97 99 100 100 99 98 97 99 101
48 44 43 45 47 49 49 51 68 92 102 100 100 101 100 100 101 100 100 101 101 100 100 100 100 100 100 102 101 94 83 72 63 50 37 29 25 22 20 21 24 30 41 53 60 65 68 71 76 81 83 85 87 88 88 90 92 91 91 90 89 88 90 93 93 93 92 92 91 92 91 90 89 90 92 95 98 100 101 101 101 100 100 100 101
49 45 43 44 46 50 53 56 68 88 101 101 99 101 101 100 100 100 100 100 101 100 100 100 100 100 100 101 101 96 86 75 65 53 40 31 25 22 20 21 24 28 37 49 60 66 70 71 74 78 82 84 86 88 89 90 91 92 92 89 88 89 93 96 97 98 100 100 100 99 98 96 95 94 94 95 97 98 99 98 98 99 100 100 101
49 44 42 43 46 50 53 59 72 89 100 101 100 101 101 100 100 100 100 100 100 100 100 100 100 100 100 101 102 98 88 78 68 56 43 33 26 22 19 20 22 25 33 44 56 66 72 74 74 77 81 84 86 89 90 90 90 91 90 87 88 93 97 99 100 101 101 101 102 102 101 99 99 99 98 98 98 98 97 97 96 97 98 100 102
Wind_Speed
35 37 39 40 42 42 43 43 43 44 45 44 43 39 36 34 34 33 32 32 32 32 32 32 31 30 29 30 30 28 28 29 30 31 29 27 28 28 29 31 30 27 26 27 28 29 31 34 36 38 41 44 45 46 48 49 50 51 51 51 51 50 50 52 56 58 58 57 56 54 52 52 50 47 49 54 57 59 56 51 48 49 54 56 54
35 37 39 40 42 43 43 43 43 44 45 44 42 40 36 34 33 32 31 31 31 32 31 31 31 30 29 29 29 27 27 26 27 27 26 26 27 28 27 29 29 27 25 25 26 27 28 30 32 35 37 40 43 45 47 48 49 51 53 53 53 53 52 52 53 55 58 60 59 57 53 52 53 51 49 51 56 60 60 56 51 48 52 56 57
34 36 38 40 41 43 43 42 43 44 44 44 42 40 37 35 33 32 31 30 31 31 30 30 31 30 29 29 29 28 26 26 26 26 24 24 25 26 25 26 27 26 25 24 24 25 26 28 30 31 33 35 38 41 44 46 47 49 52 54 55 54 54 53 53 54 56 59 60 59 57 54 53 54 52 51 54 60 62 61 56 52 50 54 57
34 35 37 40 41 43 43 43 43 43 44 44 42 40 38 35 34 32 31 30 30 30 30 29 29 30 29 29 29 28 27 25 25 25 24 22 22 23 23 23 23 23 23 22 22 22 23 24 26 28 29 31 33 35 38 42 44 46 49 52 54 55 55 55 54 54 55 57 59 60 60 57 55 55 55 53 52 57 63 64 62 58 54 52 54
34 35 37 39 41 42 43 43 43 43 44 44 42 39 38 36 34 33 32 31 30 30 29 29 28 28 28 28 28 28 27 26 24 24 23 21 20 20 20 20 20 20 20 19 18 18 19 20 21 23 25 27 29 31 34 36 39 42 46 50 52 54 56 56 55 55 56 57 58 60 61 61 59 56 56 56 53 54 60 64 66 64 59 55 53
35 36 37 39 41 42 43 44 44 44 43 43 42 40 38 36 34 34 33 32 31 30 29 29 28 27 26 27 26 26 26 26 24 23 22 21 19 17 17 17 17 16 16 16 15 15 15 16 17 19 20 23 25 27 29 32 35 39 42 46 49 52 55 56 56 55 56 57 58 59 60 62 61 58 57 58 55 53 56 62 65 66 64 62 58
35 36 38 39 41 42 43 45 44 44 44 43 42 41 39 37 35 34 33 33 32 31 29 29 29 27 26 25 25 24 24 24 24 22 21 20 19 18 16 16 15 14 14 14 14 13 14 14 15 17 18 20 21 24 26 28 31 35 38 43 47 50 53 55 57 56 55 57 58 59 60 61 62 61 59 59 58 55 55 58 63 64 65 66 64
36 37 38 39 41 42 43 44 45 45 44 43 42 41 40 38 36 34 34 34 33 32 30 29 29 28 27 25 24 24 24 23 23 22 21 20 19 19 18 17 16 15 15 14 14 14 14 14 15 16 18 19 20 22 24 26 28 31 35 39 44 48 51 54 56 57 56 56 58 59 60 60 62 63 61 60 60 59 55 55 59 62 64 65 66
37 37 38 40 41 42 43 44 45 45 45 44 43 41 40 39 38 36 34 34 34 33 32 31 30 29 27 26 24 23 23 23 22 21 20 19 19 18 18 18 18 17 17 16 16 15 16 16 17 18 19 20 21 22 24 26 27 29 32 36 40 45 49 53 55 57 57 57 57 59 60 61 62 63 63 62 61 61 59 56 57 59 62 63 65
38 38 39 40 41 42 43 44 45 45 46 45 44 42 41 40 39 37 35 35 35 34 33 32 31 30 28 27 25 23 23 23 23 21 20 19 19 18 18 18 18 18 18 18 17 17 17 17 18 19 20 21 22 23 24 26 27 29 31 34 38 42 47 51 54 56 57 58 58 59 60 61 62 63 63 63 62 62 62 60 58 58 61 62 62
40 40 40 41 42 42 43 44 44 45 46 46 45 44 43 41 39 37 36 36 36 36 35 34 33 31 30 28 26 24 23 23 23 22 21 20 19 18 18 18 19 19 19 19 19 19 19 19 19 20 21 22 23 24 25 26 27 29 31 33 36 40 44 48 52 55 56 57 58 59 60 61 62 63 63 64 63 63 63 63 61 60 61 62 62
41 41 41 41 42 43 43 44 45 46 47 47 46 45 44 42 40 37 36 36 37 37 36 35 34 33 31 29 27 25 24 23 23 23 22 21 20 19 18 19 19 20 21 21 20 21 20 21 21 22 22 23 24 24 25 26 27 29 31 33 35 38 42 46 50 53 55 56 57 58 60 61 63 64 64 64 64 64 64 64 63 62 63 62 61
42 42 42 42 42 43 43 44 45 46 47 47 47 46 44 43 41 39 36 35 37 38 37 35 35 34 32 30 28 26 25 24 23 23 23 23 22 21 20 20 20 20 22 23 23 23 22 22 22 23 24 25 25 25 25 26 27 29 30 31 33 35 38 42 47 51 53 55 56 57 58 60 62 64 64 64 64 65 65 65 64 63 64 63 61
43 43 43 43 43 43 44 44 45 46 47 48 48 47 45 43 42 40 37 36 36 38 38 36 35 35 33 31 29 27 26 25 25 24 23 24 24 23 22 21 21 21 22 23 24 25 25 24 24 24 24 25 26 26 26 26 27 28 29 30 30 31 34 38 43 48 52 54 55 55 56 58 60 62 64 64 64 65 65 65 65 64 65 64 62
43 44 43 43 44 44 45 45 45 45 46 47 47 47 47 44 43 41 40 38 36 37 38 37 35 35 34 32 31 29 27 26 26 25 25 24 25 25 24 23 23 23 23 24 25 25 26 26 25 25 25 25 26 26 26 25 26 27 28 29 28 28 29 33 37 43 48 52 54 54 54 55 57 60 62 63 63 64 65 66 66 66 65 65 64
44 44 44 44 44 45 45 45 45 45 46 47 47 47 47 46 44 42 41 40 37 36 37 37 36 35 34 33 32 31 29 27 27 27 26 26 26 26 26 25 25 25 25 25 26 26 27 27 26 26 26 26 26 26 25 25 25 26 27 27 26 25 26 27 30 36 42 47 51 53 52 53 54 56 58 60 61 62 64 65 66 67 66 66 66
44 45 45 45 45 45 45 45 46 46 46 47 47 47 47 47 46 44 41 40 38 36 36 37 37 36 35 34 33 32 31 30 28 28 28 28 28 27 27 27 26 26 26 26 26 27 27 28 27 26 26 26 26 26 25 24 24 24 26 26 25 24 23 23 24 27 33 39 45 49 51 51 51 53 55 57 58 60 61 63 65 67 68 68 67
45 45 45 45 45 45 45 46 46 46 47 47 47 47 47 47 47 45 42 41 39 37 35 36 37 37 36 35 34 33 32 32 31 30 29 30 29 29 29 28 27 27 27 27 26 27 27 28 28 27 27 27 26 26 25 24 23 23 24 25 25 23 21 21 20 21 24 30 37 42 46 48 48 50 51 53 55 56 58 60 63 65 67 69 69
46 46 45 45 46 45 46 46 46 47 48 48 48 47 47 47 47 46 44 41 39 37 36 34 35 36 35 35 35 34 33 33 32 31 31 31 31 32 31 29 29 28 28 28 27 27 27 28 28 27 27 27 27 26 25 24 23 22 22 23 24 23 21 19 19 18 18 21 27 33 39 43 45 47 49 50 52 54 55 57 60 62 64 67 69
47 47 46 46 47 46 46 46 47 47 48 48 48 47 47 47 47 46 44 42 39 38 36 35 34 34 34 34 35 35 35 34 33 33 32 32 32 33 33 32 30 29 29 29 28 27 28 27 28 28 27 27 27 26 25 24 23 22 21 22 22 22 20 18 18 18 17 17 20 24 29 35 40 43 46 48 51 52 53 54 57 58 60 63 66
49 47 47 48 48 47 47 47 48 49 49 49 48 47 47 47 46 46 45 43 41 38 37 36 34 33 33 33 34 35 36 35 35 33 32 32 33 34 34 33 32 30 30 30 29 29 28 27 27 27 27 27 26 25 24 23 23 22 21 21 21 21 20 18 17 17 18 18 18 19 22 26 31 36 40 44 47 51 53 54 55 57 58 59 62
50 49 49 49 49 49 49 49 49 50 50 50 49 47 46 46 46 46 45 44 42 39 38 36 35 34 33 33 34 34 36 36 36 34 33 32 33 34 34 34 33 31 31 30 30 30 29 28 27 27 27 27 26 25 24 23 23 22 20 20 20 20 19 18 16 16 17 18 19 19 20 21 25 29 32 36 41 46 50 53 55 56 57 58 60
50 50 51 51 51 51 51 51 50 50 50 50 49 47 46 45 45 45 45 44 43 41 39 37 36 35 34 34 34 34 35 36 36 36 34 33 33 33 34 34 33 32 31 30 30 30 30 28 27 27 27 27 26 24 23 23 23 22 20 19 20 19 19 18 17 16 16 18 19 19 19 20 22 25 27 30 34 39 44 49 53 54 56 57 58
51 50 51 52 52 53 52 52 52 51 51 50 50 48 46 45 44 45 45 44 43 42 40 38 36 35 35 35 35 34 35 35 36 36 35 34 33 33 33 33 32 32 31 30 30 30 29 28 28 27 26 26 25 24 22 23 23 22 20 20 20 19 18 18 17 16 15 16 18 19 20 21 22 23 25 27 29 33 37 42 46 49 52 55 56
51 50 51 51 52 53 53 53 53 52 51 50 50 49 47 45 44 44 44 44 44 43 41 39 37 36 35 35 35 35 35 34 35 35 35 34 33 33 33 32 31 31 31 30 30 29 29 28 28 27 26 25 24 23 22 21 22 21 21 20 20 19 18 17 17 16 15 15 16 18 20 21 23 23 23 24 26 29 32 36 39 43 47 50 53
50 50 51 50 51 52 52 53 53 53 52 51 50 49 48 46 44 43 43 44 44 43 41 39 37 36 35 34 35 35 34 34 34 34 35 35 34 33 32 32 31 31 30 30 29 28 27 27 27 27 26 24 24 23 21 20 20 21 21 20 20 19 19 17 17 16 16 15 15 16 18 20 22 23 22 22 24 25 28 31 34 37 41 45 48
49 48 50 51 51 52 52 52 53 53 53 52 51 50 48 46 44 43 43 42 43 42 41 39 37 35 34 34 34 34 34 33 33 34 34 35 35 33 32 31 31 30 30 29 29 27 26 26 26 26 26 24 23 22 21 19 19 19 19 20 20 20 19 18 16 16 16 16 15 15 15 18 20 22 22 22 23 23 25 28 30 33 36 39 43
48 47 49 51 52 52 53 53 53 53 53 52 52 51 50 48 45 43 42 41 41 41 40 38 37 35 34 33 33 33 33 32 32 32 33 34 34 33 31 31 30 30 30 29 28 27 25 25 25 25 25 24 22 22 21 19 18 19 18 19 20 19 18 17 16 16 16 16 16 15 15 15 17 20 21 22 22 23 23 25 27 30 32 35 39
50 49 49 50 50 51 53 54 54 54 54 53 52 51 51 50 47 44 41 40 40 40 39 38 37 35 34 33 32 32 32 32 31 31 31 32 32 32 31 30 30 30 29 29 28 26 25 24 24 24 24 23 22 22 20 18 18 18 17 18 20 19 17 16 16 16 15 16 16 16 15 15 15 17 19 21 22 23 23 23 24 27 30 32 35
53 52 51 50 49 49 50 52 53 54 54 54 52 51 52 51 49 46 43 40 38 38 38 37 36 35 34 33 32 32 32 32 32 30 30 29 30 30 30 29 29 29 29 28 27 26 25 24 23 23 23 22 22 22 20 18 17 18 17 17 17 17 17 17 16 16 16 16 16 16 16 16 15 15 17 19 21 22 23 23 23 25 28 30 32
57 55 54 53 51 50 48 49 50 51 52 53 53 52 51 51 50 48 45 42 38 36 36 36 35 34 33 32 31 31 32 32 32 31 29 28 28 29 29 29 29 29 29 28 27 27 26 25 23 22 22 22 22 23 21 18 17 17 17 17 16 16 17 18 17 16 16 16 16 17 16 16 16 16 15 17 19 21 23 23 23 24 26 28 30
62 60 59 57 55 53 51 49 48 48 49 51 53 52 51 51 51 50 47 44 39 36 35 34 34 34 32 31 30 30 30 32 32 32 30 28 27 27 28 28 29 29 29 28 28 28 27 26 24 23 22 22 22 23 21 18 17 18 19 20 20 19 19 18 17 17 16 17 17 17 17 17 17 17 16 16 17 19 21 23 24 25 26 27 28
65 64 62 59 57 56 53 51 49 47 48 50 51 51 51 51 51 50 48 45 41 37 34 32 33 33 32 30 29 28 29 30 31 31 30 29 27 26 26 27 28 28 29 28 28 28 28 28 27 25 23 22 22 24 23 19 17 19 20 22 23 22 20 16 16 16 17 17 18 18 18 17 17 18 17 17 17 18 19 22 24 25 26 27 27
64 64 62 60 58 56 54 52 50 48 47 48 49 50 50 51 51 50 49 46 43 39 35 32 31 31 31 29 28 27 27 29 30 30 30 29 27 26 25 26 27 28 28 28 28 28 29 29 28 27 24 23 23 25 24 20 19 20 21 22 24 23 19 15 13 15 16 17 19 19 19 18 18 18 18 19 19 19 19 20 21 24 26 27 28
61 62 61 60 59 57 56 55 53 51 49 48 47 47 48 50 50 49 48 47 44 41 37 33 31 30 30 29 27 26 26 27 28 29 29 28 27 26 25 25 26 27 27 28 27 28 28 29 29 28 26 23 23 25 24 22 21 21 23 24 24 22 20 17 15 14 14 16 17 18 18 18 18 19 19 19 20 20 20 20 20 21 22 25 27
59 59 59 59 59 58 58 56 55 54 52 49 48 47 47 48 47 47 47 46 45 42 39 35 32 29 28 28 27 25 25 25 27 27 28 28 27 26 25 25 24 25 26 27 27 26 27 27 28 27 26 24 24 25 25 23 22 23 25 27 26 23 20 19 18 16 14 14 15 16 16 16 16 17 18 20 20 21 21 20 19 18 18 19 21
59 58 59 58 58 57 57 55 55 54 52 50 50 49 49 46 43 44 45 45 44 42 40 38 34 30 28 27 26 25 24 24 25 26 27 27 26 25 25 24 24 24 25 26 26 25 25 25 26 26 26 24 24 25 25 24 23 24 26 29 29 25 21 20 20 20 18 16 16 16 16 15 14 14 16 19 21 22 22 20 19 17 17 16 13
60 59 60 59 57 56 55 54 53 52 50 50 50 50 50 46 41 41 43 43 42 41 41 40 36 31 28 27 26 25 24 23 24 24 25 26 26 25 24 23 23 23 25 26 25 24 24 24 25 25 25 24 23 24 25 25 25 25 27 29 30 28 24 20 20 22 22 20 18 17 17 17 15 14 15 17 20 23 24 22 20 19 18 15 10
62 61 60 59 58 56 54 52 52 50 49 49 49 50 50 46 40 39 40 40 40 41 42 40 36 32 28 26 26 25 24 23 23 23 24 25 25 24 24 22 22 22 24 25 25 24 24 24 24 24 24 23 23 24 25 26 26 27 28 30 30 30 28 23 20 20 23 24 22 19 18 19 18 17 18 18 19 22 25 25 24 22 20 13 8
62 61 60 60 58 56 53 51 51 50 50 49 48 48 48 44 40 38 37 38 40 41 41 39 36 32 29 27 25 25 23 23 22 22 23 24 24 24 23 22 21 21 23 24 25 24 24 24 24 23 22 22 23 23 25 26 27 28 29 29 30 31 30 26 23 21 22 24 25 22 19 20 21 21 20 20 21 21 23 25 26 26 21 13 10
60 60 60 60 58 55 53 51 51 51 51 50 48 48 46 42 40 36 33 36 40 41 39 38 37 33 29 27 25 24 23 22 22 21 22 23 23 23 22 21 21 21 21 23 24 24 24 24 24 23 23 23 23 23 24 25 27 28 29 30 31 31 30 28 27 25 24 25 26 24 20 20 24 25 23 23 23 22 22 25 27 27 23 17 17
60 60 60 60 59 57 54 53 51 52 52 51 51 49 46 43 40 34 31 36 40 38 37 38 37 33 30 27 25 24 23 22 21 21 21 22 22 22 22 21 20 20 21 22 24 24 24 24 24 24 24 24 24 23 23 24 26 28 28 29 30 30 29 29 29 29 28 27 26 23 21 21 25 27 26 26 25 24 25 26 26 27 25 21 21
61 61 60 60 60 58 56 54 52 51 52 53 52 50 47 45 41 32 30 37 37 34 36 37 36 34 31 27 25 24 23 22 21 21 20 20 20 20 21 20 19 19 19 21 23 24 24 24 24 24 24 25 24 24 24 25 26 27 27 28 28 29 29 30 31 31 30 28 27 24 23 24 25 26 26 27 27 26 27 27 25 25 25 24 24
62 61 60 60 60 59 57 54 51 50 51 52 52 50 49 47 40 31 33 37 34 31 34 36 35 35 31 28 25 24 22 22 21 21 20 19 19 19 20 19 19 18 18 20 21 23 24 25 24 24 25 25 25 24 26 27 28 28 27 28 29 30 30 31 32 31 30 29 28 27 26 26 26 26 26 27 27 27 27 26 25 25 25 25 24
62 61 60 59 59 58 57 54 49 48 49 51 51 50 49 46 39 35 36 36 31 30 32 34 35 34 31 28 25 23 22 22 21 21 20 19 18 18 18 18 18 17 17 18 20 21 23 25 25 25 24 25 25 26 28 29 29 29 29 29 30 31 31 32 32 31 30 29 29 29 28 28 27 26 26 26 26 27 27 27 26 25 25 24 23
62 61 61 60 58 57 57 55 50 46 47 49 49 49 48 44 40 38 38 35 30 28 29 32 34 33 31 28 25 23 22 21 21 20 20 18 17 17 17 17 17 17 16 17 18 19 21 22 24 24 24 24 26 28 29 29 30 30 30 30 30 30 31 32 32 31 30 30 30 30 29 28 26 26 25 25 26 26 26 27 27 26 24 23 23
62 62 61 60 59 58 57 55 51 46 45 47 47 47 46 43 42 40 38 35 31 27 27 31 32 32 30 28 25 23 22 21 20 20 19 18 17 16 16 17 16 16 16 16 16 17 18 19 21 21 22 23 25 26 28 28 28 29 30 29 29 29 30 30 30 29 29 30 30 29 28 26 25 24 24 24 24 25 26 26 27 26 24 23 23
63 62 61 60 59 58 56 55 51 46 45 46 46 46 45 44 43 41 39 36 31 25 25 29 31 30 29 27 24 23 22 20 20 19 19 18 17 16 15 15 15 16 16 15 15 16 16 17 18 19 20 21 22 23 24 25 26 27 28 27 27 28 28 27 27 27 28 28 28 27 25 23 22 21 21 21 22 23 24 25 25 25 24 23 23
64 63 61 60 60 58 57 56 52 47 45 45 45 45 45 45 44 42 39 36 30 24 24 27 29 29 28 26 24 23 22 21 20 19 18 18 17 16 15 14 14 15 15 15 15 15 15 16 17 18 18 19 19 21 22 23 24 25 25 25 25 25 25 25 25 25 25 25 25 23 22 20 19 17 17 18 19 20 21 23 23 24 24 24 24
65 63 62 61 59 58 57 56 53 49 46 44 44 45 45 45 44 42 39 34 29 24 24 25 27 28 27 26 24 23 22 21 19 18 18 17 16 16 15 14 14 13 14 14 14 14 15 16 16 16 18 18 18 19 20 21 23 23 24 24 23 22 22 22 22 21 21 21 21 19 19 18 16 15 15 15 16 17 18 20 21 21 22 23 24
66 65 64 62 60 58 56 55 53 50 46 44 44 45 46 45 43 41 38 32 28 25 23 23 25 27 26 25 24 23 22 21 19 18 18 17 16 15 14 14 13 12 12 13 13 13 14 15 15 15 16 17 17 18 18 19 20 21 22 21 19 17 17 17 16 16 17 17 17 16 16 15 15 14 14 14 15 15 16 18 19 20 21 22 22
Wind_Direction
331 331 333 334 334 336 338 339 338 331 326 325 326 326 323 319 318 317 317 318 320 323 327 329 329 328 324 317 313 309 307 306 304 303 303 301 297 294 292 293 294 292 286 279 274 270 266 262 258 255 253 252 251 252 252 252 252 253 253 253 253 253 253 254 255 254 253 250 248 246 246 246 246 243 236 231 229 228 227 228 227 226 229 229 220
331 331 332 332 333 335 337 339 336 330 327 326 326 325 322 317 315 314 314 315 317 320 325 328 330 331 329 322 318 316 313 310 305 303 303 301 298 297 295 294 295 296 292 285 278 274 271 267 264 260 257 254 252 251 251 252 252 252 252 252 252 252 252 253 254 255 255 253 251 248 247 246 247 247 241 234 231 230 227 226 227 226 225 227 225
331 331 331 331 333 333 336 338 335 330 328 327 326 324 320 316 314 312 311 312 314 317 321 325 328 330 331 328 324 322 318 314 308 305 304 302 301 301 300 297 297 297 296 291 285 279 275 272 269 266 263 260 256 254 252 251 252 252 251 251 251 251 251 251 251 252 254 254 254 252 249 247 246 247 246 239 233 232 231 227 225 227 226 224 224
331 331 331 331 332 332 334 335 333 331 329 329 327 324 320 316 313 310 308 308 309 314 318 322 326 328 331 329 327 325 321 317 311 308 308 306 305 304 303 301 300 300 299 296 292 287 283 278 274 271 268 265 261 258 255 253 252 252 252 251 250 250 249 250 250 250 251 252 253 254 253 250 246 245 246 245 239 233 233 232 228 226 227 225 223
332 332 331 331 331 331 333 333 332 331 331 330 328 325 321 317 312 308 305 304 306 311 316 320 323 326 328 328 327 326 323 320 316 312 312 312 310 307 306 306 305 304 303 302 300 297 292 287 282 277 273 269 266 262 258 255 253 252 252 252 251 250 248 248 248 249 249 249 250 252 253 252 248 245 244 244 244 238 234 236 234 229 226 226 225
333 333 332 331 331 331 332 331 331 331 331 331 329 326 323 318 312 307 304 302 303 307 312 317 320 323 325 325 325 325 321 320 318 316 316 317 317 314 311 311 310 310 309 309 308 305 302 299 294 289 283 278 274 269 264 259 254 252 252 252 251 250 249 247 246 246 247 248 248 249 250 252 251 248 245 242 241 241 239 238 238 235 230 228 226
334 333 333 332 331 331 331 330 329 330 331 331 330 328 325 321 315 307 303 301 301 304 308 312 316 319 321 321 322 322 320 318 318 317 318 319 320 320 317 316 316 315 314 314 314 313 311 309 305 301 295 290 285 279 273 267 260 255 252 251 251 251 250 248 246 244 245 246 247 247 247 250 251 250 248 244 241 239 240 241 240 240 237 232 229
335 334 333 332 331 331 330 328 328 329 330 331 332 330 326 323 318 311 304 301 300 300 303 307 311 314 316 318 319 319 318 317 317 317 318 319 320 321 321 320 318 317 316 316 315 315 314 313 311 308 304 301 296 290 284 278 270 263 257 253 251 251 250 249 247 244 243 243 244 246 246 246 248 250 249 248 244 239 237 240 242 243 241 237 234
335 335 334 333 332 331 329 327 327 328 328 330 332 331 328 324 320 315 307 302 299 298 299 301 304 308 311 314 314 315 315 314 314 315 316 317 319 320 321 321 321 320 319 318 316 315 314 312 310 308 306 304 301 298 294 289 282 274 266 259 253 251 250 250 249 247 244 242 242 244 245 245 245 247 248 248 247 243 237 235 239 243 244 241 239
336 335 335 334 332 329 327 327 327 327 327 329 332 332 330 327 322 317 311 303 299 297 296 296 298 302 305 309 310 310 310 310 310 310 311 313 315 318 319 321 321 321 321 321 320 318 316 313 310 308 306 304 302 301 299 296 292 285 278 269 260 253 250 249 249 248 246 243 241 241 243 245 244 244 246 246 247 247 242 237 236 240 244 244 242
336 336 335 333 331 328 327 327 326 327 327 329 330 332 331 329 324 319 312 305 299 296 294 293 293 295 299 303 306 306 305 305 305 305 306 307 309 312 314 317 318 319 319 320 320 320 318 315 313 310 307 305 303 302 301 300 297 293 288 280 270 260 253 249 248 248 248 245 243 241 241 243 244 244 244 245 246 246 246 242 237 237 240 244 245
335 335 334 333 330 328 327 327 327 327 327 328 329 330 330 329 326 321 314 306 299 295 292 291 290 291 293 296 300 302 301 301 300 301 301 301 303 305 307 309 312 313 314 315 315 315 316 316 315 313 310 307 304 302 301 301 301 299 295 289 279 269 260 252 248 247 246 246 244 243 241 241 243 244 244 244 245 245 246 245 242 239 239 241 244
335 334 334 332 329 328 328 328 328 327 327 327 327 328 328 328 327 324 317 308 301 296 293 291 289 289 289 291 293 296 296 296 296 296 296 297 297 298 299 301 303 305 307 309 310 310 311 312 313 313 312 309 306 304 302 302 303 303 302 296 287 277 268 258 251 247 245 244 243 242 242 242 242 243 244 244 244 245 245 245 244 242 240 240 241
335 334 333 332 330 329 329 329 329 328 327 326 326 326 327 327 326 325 321 313 305 299 295 292 289 288 287 287 288 289 291 292 292 292 292 292 292 293 294 295 296 297 299 301 303 305 306 308 310 312 311 310 307 305 303 302 304 305 306 302 293 283 275 265 255 249 245 243 242 241 241 242 242 242 243 244 244 245 245 245 245 244 242 241 240
334 334 333 332 331 330 330 329 329 328 326 325 325 324 325 326 326 325 322 318 310 303 298 294 290 287 286 285 284 284 285 286 288 288 288 289 289 289 290 291 292 292 293 295 296 298 299 301 304 308 309 308 306 304 302 302 303 306 309 307 299 290 282 273 261 251 246 243 242 240 239 240 241 242 243 243 244 245 245 246 246 245 244 243 242
334 333 333 333 332 331 330 330 329 328 326 325 324 323 323 324 324 324 322 320 315 307 301 297 292 287 285 284 283 282 282 282 283 284 285 286 286 287 288 289 290 290 291 292 293 294 294 295 297 301 305 306 306 305 304 303 303 306 311 313 307 297 289 282 270 257 248 243 242 241 240 239 239 241 242 242 243 243 245 245 246 247 246 244 243
334 334 334 333 332 331 331 330 330 329 326 325 324 323 323 322 322 322 321 320 317 311 304 298 294 289 285 283 282 281 280 279 279 279 282 284 285 286 287 287 289 289 290 291 291 293 293 292 293 296 300 303 305 306 306 305 305 307 312 317 314 304 296 292 282 268 255 247 243 241 241 240 239 240 242 242 242 242 243 244 245 246 247 246 245
335 335 334 332 332 331 331 332 331 330 328 326 325 324 323 321 320 320 320 318 317 313 307 300 296 292 288 284 281 280 279 277 276 276 277 280 282 284 285 286 288 288 289 290 290 292 292 292 292 293 296 300 303 306 308 308 307 308 312 317 318 312 302 296 290 279 264 252 246 243 241 241 240 240 241 242 243 242 242 242 243 244 245 247 247
335 334 333 332 332 332 332 333 332 331 329 327 326 324 322 321 319 318 318 317 316 314 310 303 297 294 290 286 282 280 278 276 274 274 274 277 279 281 283 284 286 287 288 289 289 290 291 292 292 291 293 297 301 305 309 310 309 308 310 315 319 318 310 299 291 285 275 261 251 246 243 242 241 240 240 241 243 244 243 242 243 243 243 245 246
335 334 333 332 332 332 332 333 332 332 331 329 328 325 323 320 318 317 316 316 316 314 311 307 300 295 292 289 285 280 278 276 274 273 273 274 276 278 280 282 283 284 286 287 288 288 289 290 291 291 290 293 297 303 307 310 310 308 307 310 315 319 315 304 292 286 279 269 258 250 246 244 243 241 240 240 241 242 243 243 243 243 243 243 244
335 334 333 332 332 332 332 332 332 332 331 330 329 326 323 320 318 316 315 315 315 314 312 310 305 300 296 292 288 283 278 276 275 273 273 273 274 276 278 279 281 282 283 285 286 285 286 288 290 290 289 289 293 300 305 309 310 308 305 305 310 316 317 310 297 286 278 271 264 257 251 247 245 244 242 241 241 241 242 242 242 242 241 241 242
334 333 333 332 332 332 331 331 331 330 331 330 329 327 324 321 319 317 316 315 314 315 313 311 309 306 301 296 292 287 281 277 275 274 273 273 274 275 276 278 279 280 281 282 283 283 284 287 288 288 286 286 290 297 303 307 308 308 304 301 303 310 315 314 304 290 278 271 267 263 259 254 250 249 247 244 242 242 242 242 242 241 240 240 240
334 333 332 331 331 330 329 329 329 328 329 329 329 328 325 323 320 317 316 314 314 314 314 313 311 308 304 299 295 291 286 281 277 274 273 272 273 274 275 277 278 279 279 279 280 281 283 285 286 286 284 284 287 294 301 305 306 306 303 298 298 303 309 312 310 298 283 273 267 263 262 260 258 254 252 249 246 244 244 244 244 243 242 241 239
334 333 333 331 330 329 328 327 327 326 327 327 327 327 326 324 322 319 317 315 313 314 314 314 312 309 306 302 297 294 290 286 281 276 273 272 272 273 274 276 278 279 279 277 277 278 280 283 284 284 283 282 285 291 298 303 305 305 303 298 295 297 302 306 308 304 293 280 270 265 260 259 259 258 257 255 252 249 248 247 247 246 245 244 242
333 332 332 331 329 328 328 327 326 325 325 325 325 326 325 324 323 320 318 316 314 314 313 313 312 309 307 303 300 296 293 291 287 280 275 273 272 272 273 275 277 279 279 277 275 275 277 281 282 283 283 281 282 287 294 301 303 302 302 300 296 293 295 300 304 306 301 291 279 269 262 258 258 259 260 260 258 255 253 251 250 249 247 247 245
329 329 330 329 327 327 327 326 326 325 324 324 323 323 324 324 323 321 319 317 315 313 312 312 310 309 308 304 301 298 295 293 290 285 279 274 272 271 271 273 275 277 278 276 273 273 275 278 280 281 282 280 280 283 290 297 301 301 301 301 298 293 291 294 300 305 307 303 293 279 267 261 259 260 260 261 260 258 256 254 253 251 249 248 247
326 324 325 326 326 326 325 325 325 324 324 323 322 321 321 321 321 321 319 317 315 313 311 310 309 309 307 304 302 299 296 293 290 287 282 275 272 271 270 271 272 275 276 274 271 270 272 276 278 279 281 280 278 280 285 293 298 299 299 300 298 295 291 292 297 303 308 308 305 295 279 267 262 261 261 261 262 261 259 256 254 252 250 249 248
326 323 322 323 325 325 325 324 323 323 322 322 322 321 319 318 318 318 317 316 314 312 310 309 308 308 306 305 303 300 298 295 290 288 284 278 274 271 270 271 271 272 274 272 269 268 270 274 276 278 280 278 276 276 281 290 295 296 297 297 297 296 292 291 292 297 303 306 308 307 296 281 269 263 262 262 262 263 262 259 257 255 252 250 249
326 324 321 320 322 323 324 324 323 323 321 321 321 320 318 317 316 315 314 313 312 311 310 308 307 307 306 304 303 302 300 298 293 290 286 282 277 273 271 270 270 271 272 270 268 266 268 271 274 278 279 277 274 273 278 286 292 295 297 296 297 298 295 290 288 290 295 300 305 308 306 297 283 272 265 262 262 263 263 262 260 258 255 252 251
328 325 321 318 317 319 321 322 322 323 321 320 319 318 318 317 315 313 311 310 310 309 308 307 306 306 305 304 304 303 303 301 297 293 290 286 281 276 272 271 270 270 270 269 266 264 265 268 272 278 280 276 272 271 276 283 289 293 294 291 290 294 294 291 288 288 290 294 298 302 305 304 297 286 275 268 264 263 262 262 261 259 258 256 253
331 329 325 320 316 314 316 317 319 320 320 318 316 316 317 317 316 313 310 308 308 307 307 306 305 304 304 304 303 304 304 302 299 296 293 290 286 280 275 272 271 270 269 268 265 262 263 266 270 276 278 276 271 270 273 280 287 290 286 279 275 275 278 283 286 287 288 290 293 295 298 301 301 298 290 279 270 263 261 261 260 260 259 258 257
329 328 326 324 320 316 314 313 314 315 316 315 314 314 316 315 315 314 311 308 306 305 304 303 303 302 302 302 303 303 303 302 300 298 295 292 289 285 278 274 272 271 270 268 264 262 262 264 268 272 275 274 270 269 271 276 283 285 281 277 275 270 269 270 275 282 286 288 289 290 291 294 296 298 299 293 282 270 263 260 259 259 259 259 260
326 325 325 324 322 320 316 313 311 311 312 312 312 314 315 313 313 314 313 308 305 303 302 301 300 300 300 301 302 302 302 301 300 298 296 293 290 287 282 277 274 272 270 268 265 262 261 262 266 269 270 270 268 268 270 272 277 279 278 279 281 282 281 274 268 273 280 284 287 288 288 289 291 293 297 297 292 283 272 264 259 257 257 258 260
328 327 326 324 323 321 318 316 312 310 310 310 312 315 314 311 311 314 314 310 305 302 301 299 297 297 298 299 300 300 299 299 299 298 296 294 291 288 285 280 275 273 271 269 266 263 262 262 263 265 266 266 264 265 268 270 273 275 275 277 281 288 295 294 281 274 275 279 284 285 286 289 290 292 295 296 296 294 285 274 264 258 256 256 256
332 331 330 329 327 324 322 320 317 313 310 309 311 313 311 309 310 313 314 312 307 302 300 298 295 294 296 297 297 297 296 296 296 297 296 293 290 288 286 282 277 273 271 270 267 265 263 262 262 262 262 261 259 262 265 267 269 272 273 275 279 286 293 296 292 284 279 281 283 284 287 289 289 290 292 292 293 294 291 286 278 268 260 257 256
333 332 331 331 330 329 328 326 323 319 314 309 308 307 306 307 310 311 313 313 309 304 300 297 294 293 293 294 294 294 293 293 294 296 296 294 291 288 285 283 280 275 271 270 268 265 264 262 261 260 259 257 256 258 262 264 265 268 270 272 277 282 287 290 291 289 285 283 282 283 286 288 288 289 288 287 286 286 286 288 288 283 274 265 261
332 331 331 330 329 329 329 328 326 324 319 314 309 305 304 305 308 310 310 312 312 307 300 296 294 293 291 292 292 291 291 291 292 294 296 295 292 289 285 283 281 277 272 269 268 267 265 263 261 259 256 253 252 255 259 262 263 265 267 270 274 278 281 285 288 289 288 285 282 281 283 282 282 284 284 283 283 281 281 282 285 287 284 280 277
333 332 331 330 329 328 328 327 326 324 321 316 312 309 306 305 307 308 308 311 313 308 300 296 295 293 290 290 289 289 289 290 291 293 295 295 294 290 286 284 282 278 273 270 268 267 265 264 262 260 257 253 250 252 256 259 263 265 266 268 271 275 278 279 281 284 286 286 283 281 280 279 276 274 275 276 278 278 278 278 280 281 279 280 287
332 332 330 329 328 328 327 327 325 324 321 318 315 313 309 307 306 305 306 311 312 305 300 297 295 292 290 289 288 288 288 289 290 292 294 296 295 293 289 286 283 279 275 271 269 266 265 265 264 261 259 255 251 252 255 257 261 263 265 268 271 274 277 277 275 276 280 283 283 282 280 278 275 270 267 267 269 273 276 277 276 273 270 272 279
333 332 331 329 328 328 327 326 324 323 321 318 316 313 310 308 305 302 306 311 308 303 302 300 295 291 290 288 287 286 287 288 290 292 294 296 296 295 292 288 285 281 276 271 268 265 264 264 264 263 261 257 255 254 254 256 258 261 265 269 271 273 277 279 277 272 271 275 279 281 282 282 279 273 265 261 260 263 269 274 274 271 266 258 252
334 333 331 330 329 330 328 325 324 323 321 319 316 313 311 308 302 301 307 307 302 302 305 301 294 292 290 287 286 286 287 288 289 291 293 295 296 296 294 291 288 284 277 271 268 265 263 263 264 264 263 261 259 258 256 256 258 260 263 266 268 271 275 278 278 275 271 270 272 277 281 280 278 274 268 262 258 255 258 264 267 269 268 255 242
333 332 330 329 330 331 329 327 325 323 322 322 319 315 313 307 301 303 305 299 297 304 306 301 296 292 289 286 286 285 286 287 288 290 292 293 295 296 295 293 290 286 280 273 268 265 263 262 262 262 263 264 264 263 262 260 259 260 262 264 267 269 272 274 275 275 274 273 273 274 274 271 269 270 269 265 261 256 254 255 258 264 269 264 251
330 329 328 328 329 330 329 328 326 324 323 323 322 319 315 308 304 303 297 292 296 304 305 301 296 292 288 286 285 284 285 286 287 289 290 292 295 296 295 294 291 288 283 275 270 266 264 261 261 261 262 263 265 266 266 264 262 262 262 264 266 268 269 271 273 275 276 277 276 276 274 272 270 269 267 264 260 255 253 253 254 257 262 264 260
329 328 327 326 327 328 328 327 327 324 323 323 324 323 317 311 306 299 290 289 295 302 303 300 296 291 289 286 283 283 285 285 286 288 289 292 295 295 294 293 292 290 285 278 272 269 265 263 261 259 260 263 265 266 265 265 265 265 265 265 266 267 268 270 272 274 275 277 278 277 276 274 273 271 268 263 258 254 253 253 253 253 255 259 262
329 329 328 327 325 326 326 326 326 324 323 323 325 324 320 313 305 295 289 289 293 298 300 298 295 291 289 285 282 282 283 284 285 286 288 291 293 294 294 293 291 290 287 281 276 272 269 266 263 260 260 262 264 264 264 265 267 268 268 268 268 269 270 272 273 275 276 277 277 276 274 274 274 272 268 261 254 250 250 250 250 251 253 257 261
330 330 329 328 325 324 324 325 325 324 323 323 325 324 320 313 304 297 292 288 289 293 297 296 293 291 288 284 281 280 281 282 283 284 287 289 291 293 293 291 289 288 285 282 279 275 272 269 266 263 260 259 260 263 265 267 269 271 271 271 272 273 273 274 276 277 278 278 276 275 274 275 274 271 265 257 250 246 246 247 248 249 253 257 261
330 329 329 327 325 324 323 323 324 324 323 323 325 325 321 314 307 300 293 287 285 288 292 293 292 290 287 283 280 278 278 279 280 282 285 288 290 291 290 289 288 287 285 283 280 277 274 271 268 264 260 259 260 263 266 270 272 273 274 275 275 275 275 276 278 279 278 276 275 275 275 274 272 268 261 254 247 243 243 246 247 249 251 256 261
328 328 327 326 325 323 322 323 324 324 322 322 324 324 321 316 310 303 294 288 284 283 287 291 290 288 285 281 277 276 276 276 278 280 282 286 288 289 289 288 289 287 286 284 281 280 278 273 269 264 261 261 263 265 268 271 272 273 276 277 277 277 278 279 279 277 275 275 274 275 275 273 269 264 257 250 244 241 242 245 247 248 251 255 260
326 326 326 326 325 323 322 322 322 322 321 321 323 323 320 317 312 305 297 290 283 278 282 287 287 286 283 278 275 274 273 273 275 276 278 282 285 287 287 286 285 285 283 283 283 282 281 278 273 268 265 264 266 268 270 272 272 274 276 277 278 279 279 277 274 273 273 274 274 274 274 273 270 263 255 247 242 241 242 244 246 248 251 255 259
325 325 325 325 324 323 322 321 320 320 320 319 320 320 319 316 312 305 298 289 279 272 275 282 285 285 281 276 274 272 270 271 273 273 275 278 281 284 286 285 284 284 281 281 282 282 282 282 278 272 268 265 265 267 269 271 274 276 277 278 278 276 271 268 267 268 269 269 270 271 270 270 269 265 259 253 248 246 246 247 248 250 252 256 259
325 325 325 324 324 323 322 320 318 318 317 317 318 318 317 316 312 306 298 289 277 268 269 277 282 281 278 276 273 269 268 269 270 271 273 276 279 282 284 284 284 284 281 279 280 280 282 283 280 273 267 264 263 264 265 268 273 276 277 278 275 269 264 262 263 264 264 264 264 263 262 263 264 263 262 261 259 258 256 256 256 256 256 258 259